When you browse on this site, cookies collect data to enhance your experience and personalize the content and advertising you see.
Visit our Privacy Policy to learn more. By continuing to use the site, you agree to this use of cookies and data.
  • In Latvia
  • List of Countries
  • For 7 days
  • Water Temperature
  • Satellite Maps
  • Weather Map
  • Weather Widgets
  • user-avatar
    Login

    Hourly Weather Shrewsbury

    Today, 27 March, Wednesday

    Time Temperature Precipitation Wind Pressure Humidity
    00:00 +4°C° 0 mm 2 mps 770 mmHg 93%
    01:00 +3°C° 0 mm 2 mps 770 mmHg 92%
    02:00 +3°C° 0 mm 2 mps 770 mmHg 92%
    03:00 +3°C° 0 mm 2 mps 770 mmHg 92%
    04:00 +3°C° 0 mm 2 mps 770 mmHg 92%
    05:00 +3°C° 0 mm 2 mps 770 mmHg 92%
    06:00 +3°C° 0 mm 2 mps 770 mmHg 92%
    07:00 +6°C° 0 mm 1 mps 770 mmHg 87%
    08:00 +8°C° 0 mm 1 mps 770 mmHg 81%
    09:00 +10°C° 0 mm 1 mps 771 mmHg 76%
    10:00 +10°C° 0 mm 2 mps 771 mmHg 72%
    11:00 +12°C° 0 mm 2 mps 771 mmHg 68%
    12:00 +14°C° 0 mm 2 mps 771 mmHg 64%
    13:00 +14°C° 0 mm 2 mps 771 mmHg 63%
    14:00 +15°C° 0 mm 2 mps 770 mmHg 62%
    15:00 +15°C° 0 mm 2 mps 770 mmHg 62%
    16:00 +14°C° 0 mm 2 mps 770 mmHg 69%
    17:00 +13°C° 0 mm 2 mps 770 mmHg 75%
    18:00 +10°C° 0 mm 2 mps 770 mmHg 82%
    19:00 +8°C° 0 mm 2 mps 771 mmHg 86%
    20:00 +7°C° 0 mm 2 mps 771 mmHg 89%
    21:00 +6°C° 0 mm 1 mps 772 mmHg 93%
    22:00 +6°C° 0 mm 1 mps 772 mmHg 93%
    23:00 +5°C° 0 mm 1 mps 772 mmHg 94%

    Tomorrow, 28 March, Thursday

    Time Temperature Precipitation Wind Pressure Humidity
    00:00 +5°C° 0 mm 1 mps 772 mmHg 94%
    01:00 +5°C° 0 mm 1 mps 772 mmHg 94%
    02:00 +5°C° 0 mm 1 mps 772 mmHg 94%
    03:00 +4°C° 0 mm 1 mps 772 mmHg 93%
    04:00 +4°C° 0 mm 1 mps 772 mmHg 93%
    05:00 +4°C° 0 mm 1 mps 772 mmHg 93%
    06:00 +4°C° 0 mm 1 mps 772 mmHg 92%
    07:00 +6°C° 0 mm 1 mps 772 mmHg 87%
    08:00 +8°C° 0 mm 1 mps 772 mmHg 83%
    09:00 +10°C° 0 mm 1 mps 772 mmHg 78%
    10:00 +12°C° 0 mm 1 mps 772 mmHg 72%
    11:00 +13°C° 0 mm 1 mps 772 mmHg 66%
    12:00 +15°C° 0 mm 1 mps 771 mmHg 61%
    13:00 +15°C° 0 mm 1 mps 771 mmHg 59%
    14:00 +16°C° 0 mm 2 mps 770 mmHg 57%
    15:00 +17°C° 0 mm 2 mps 770 mmHg 55%
    16:00 +15°C° 0 mm 2 mps 770 mmHg 62%
    17:00 +14°C° 0 mm 1 mps 770 mmHg 68%
    18:00 +13°C° 0 mm 1 mps 770 mmHg 74%
    19:00 +11°C° 0 mm 1 mps 770 mmHg 79%
    20:00 +9°C° 0 mm 1 mps 770 mmHg 83%
    21:00 +7°C° 0 mm 2 mps 770 mmHg 87%
    22:00 +6°C° 0 mm 2 mps 770 mmHg 87%
    23:00 +6°C° 0 mm 2 mps 770 mmHg 86%

    Day after tomorrow, 29 March, Friday

    Time Temperature Precipitation Wind Pressure Humidity
    00:00 +5°C° 0 mm 2 mps 770 mmHg 85%
    01:00 +5°C° 0 mm 2 mps 769 mmHg 84%
    02:00 +4°C° 0 mm 2 mps 769 mmHg 83%
    03:00 +4°C° 0 mm 2 mps 769 mmHg 82%
    04:00 +4°C° 0 mm 2 mps 769 mmHg 81%
    05:00 +3°C° 0 mm 2 mps 768 mmHg 81%
    06:00 +3°C° 0 mm 2 mps 768 mmHg 80%
    07:00 +5°C° 0 mm 2 mps 768 mmHg 75%
    08:00 +8°C° 0 mm 2 mps 768 mmHg 70%
    09:00 +10°C° 0 mm 2 mps 768 mmHg 65%
    10:00 +12°C° 0 mm 2 mps 768 mmHg 60%
    11:00 +14°C° 0 mm 2 mps 767 mmHg 56%
    12:00 +16°C° 0 mm 3 mps 767 mmHg 52%
    13:00 +16°C° 0 mm 3 mps 767 mmHg 52%
    14:00 +17°C° 0 mm 3 mps 766 mmHg 53%
    15:00 +17°C° 0 mm 3 mps 766 mmHg 53%
    16:00 +16°C° 0 mm 2 mps 765 mmHg 59%
    17:00 +14°C° 0 mm 2 mps 765 mmHg 65%
    18:00 +13°C° 0 mm 2 mps 765 mmHg 71%
    19:00 +10°C° 0 mm 2 mps 765 mmHg 75%
    20:00 +9°C° 0 mm 2 mps 765 mmHg 79%
    21:00 +7°C° 0 mm 2 mps 765 mmHg 83%
    22:00 +6°C° 0 mm 2 mps 765 mmHg 84%
    23:00 +6°C° 0 mm 2 mps 765 mmHg 86%

    30 March, Saturday

    Time Temperature Precipitation Wind Pressure Humidity
    00:00 +5°C° 0 mm 2 mps 765 mmHg 87%
    01:00 +5°C° 0 mm 2 mps 765 mmHg 87%
    02:00 +4°C° 0 mm 2 mps 764 mmHg 86%
    03:00 +4°C° 0 mm 2 mps 764 mmHg 86%
    04:00 +4°C° 0 mm 2 mps 764 mmHg 86%
    05:00 +3°C° 0 mm 2 mps 764 mmHg 86%
    06:00 +3°C° 0 mm 2 mps 764 mmHg 86%
    07:00 +5°C° 0 mm 2 mps 763 mmHg 80%
    08:00 +7°C° 0 mm 2 mps 763 mmHg 74%
    09:00 +9°C° 0 mm 2 mps 763 mmHg 68%
    10:00 +11°C° 0 mm 3 mps 763 mmHg 65%
    11:00 +12°C° 0 mm 3 mps 763 mmHg 61%
    12:00 +14°C° 0 mm 3 mps 762 mmHg 58%
    13:00 +14°C° 0 mm 3 mps 762 mmHg 59%
    14:00 +14°C° 0 mm 4 mps 761 mmHg 61%
    15:00 +14°C° 0 mm 4 mps 761 mmHg 63%
    16:00 +13°C° 0 mm 4 mps 761 mmHg 68%
    17:00 +11°C° 0 mm 4 mps 761 mmHg 73%
    18:00 +10°C° 0 mm 4 mps 761 mmHg 78%
    19:00 +8°C° 0 mm 4 mps 762 mmHg 78%
    20:00 +7°C° 0 mm 4 mps 763 mmHg 78%
    21:00 +6°C° 0 mm 5 mps 763 mmHg 77%
    22:00 +5°C° 0 mm 5 mps 763 mmHg 77%
    23:00 +3°C° 0 mm 5 mps 764 mmHg 76%

    31 March, Sunday

    Time Temperature Precipitation Wind Pressure Humidity
    00:00 +3°C° 0 mm 4 mps 764 mmHg 76%
    01:00 +3°C° 0 mm 4 mps 764 mmHg 76%
    02:00 +3°C° 0 mm 4 mps 764 mmHg 77%
    03:00 +3°C° 0 mm 4 mps 765 mmHg 78%
    04:00 +1°C° 0 mm 4 mps 765 mmHg 79%
    05:00 +1°C° 0 mm 3 mps 765 mmHg 81%
    06:00 +1°C° 0 mm 3 mps 766 mmHg 83%
    07:00 +1°C° 0 mm 4 mps 766 mmHg 77%
    08:00 +3°C° 0 mm 4 mps 767 mmHg 72%
    09:00 +5°C° 0 mm 5 mps 767 mmHg 66%
    10:00 +6°C° 0 mm 5 mps 768 mmHg 63%
    11:00 +7°C° 0 mm 5 mps 768 mmHg 60%
    12:00 +8°C° 0 mm 5 mps 768 mmHg 58%
    13:00 +8°C° 0 mm 5 mps 768 mmHg 58%
    14:00 +8°C° 0 mm 5 mps 768 mmHg 58%
    15:00 +8°C° 0 mm 5 mps 768 mmHg 57%
    16:00 +7°C° 0 mm 4 mps 768 mmHg 62%
    17:00 +7°C° 0 mm 3 mps 768 mmHg 66%
    18:00 +5°C° 0 mm 3 mps 768 mmHg 70%
    19:00 +4°C° 0 mm 3 mps 768 mmHg 73%
    20:00 +3°C° 0 mm 3 mps 769 mmHg 76%
    21:00 +1°C° 0 mm 3 mps 769 mmHg 79%
    22:00 +1°C° 0 mm 2 mps 769 mmHg 81%
    23:00 +1°C° 0 mm 2 mps 769 mmHg 82%

    1 April, Monday

    Time Temperature Precipitation Wind Pressure Humidity
    00:00 +1°C° 0 mm 1 mps 769 mmHg 83%
    01:00 +1°C° 0 mm 1 mps 769 mmHg 84%
    02:00 0°C° 0 mm 1 mps 769 mmHg 84%
    03:00 0°C° 0 mm 1 mps 769 mmHg 85%
    04:00 0°C° 0 mm 1 mps 769 mmHg 85%
    05:00 0°C° 0 mm 1 mps 768 mmHg 85%
    06:00 0°C° 0 mm 1 mps 768 mmHg 84%
    07:00 +1°C° 0 mm 2 mps 768 mmHg 77%
    08:00 +3°C° 0 mm 2 mps 768 mmHg 69%
    09:00 +5°C° 0 mm 2 mps 768 mmHg 61%
    10:00 +6°C° 0 mm 2 mps 767 mmHg 58%
    11:00 +8°C° 0 mm 2 mps 766 mmHg 56%
    12:00 +9°C° 0 mm 2 mps 766 mmHg 53%
    13:00 +9°C° 0 mm 3 mps 765 mmHg 56%
    14:00 +9°C° 0 mm 3 mps 764 mmHg 58%
    15:00 +8°C° 0 mm 4 mps 763 mmHg 60%
    16:00 +7°C° 0 mm 4 mps 763 mmHg 65%
    17:00 +7°C° 0 mm 4 mps 763 mmHg 70%
    18:00 +6°C° 0 mm 4 mps 762 mmHg 74%
    19:00 +5°C° 0 mm 4 mps 762 mmHg 78%
    20:00 +3°C° 0 mm 4 mps 761 mmHg 83%
    21:00 +1°C° 0 mm 4 mps 761 mmHg 87%
    22:00 +3°C° 0 mm 4 mps 760 mmHg 86%
    23:00 +2°C° 0 mm 5 mps 759 mmHg 85%
    Show more